QPF
0.01 0.00 0.00 0.02 0.07 0.13 0.08 0.02 0.00 0.01 0.02 0.01 0.01 0.04 0.04 0.05 0.08 0.12 0.09 0.08 0.05 0.04 0.04 0.03 0.04 0.05 0.05 0.05 0.06 0.07 0.09 0.09 0.07 0.06 0.06 0.07 0.08 0.07 0.08 0.07 0.07 0.08 0.09 0.08 0.08 0.08 0.15 0.15 0.13
0.00 0.00 0.01 0.07 0.13 0.12 0.06 0.02 0.02 0.01 0.01 0.01 0.02 0.02 0.03 0.03 0.03 0.06 0.08 0.05 0.03 0.04 0.05 0.03 0.04 0.05 0.05 0.06 0.09 0.11 0.12 0.10 0.08 0.07 0.07 0.08 0.07 0.07 0.08 0.08 0.10 0.14 0.13 0.11 0.10 0.12 0.18 0.19 0.15
0.00 0.01 0.04 0.10 0.10 0.10 0.07 0.03 0.01 0.00 0.01 0.03 0.04 0.01 0.01 0.03 0.04 0.07 0.06 0.04 0.03 0.04 0.05 0.04 0.05 0.06 0.06 0.08 0.13 0.12 0.11 0.09 0.07 0.07 0.07 0.07 0.08 0.08 0.07 0.08 0.15 0.22 0.19 0.16 0.18 0.20 0.23 0.22 0.18
0.01 0.03 0.05 0.08 0.08 0.04 0.04 0.02 0.01 0.01 0.01 0.02 0.02 0.01 0.02 0.03 0.04 0.04 0.04 0.02 0.03 0.05 0.04 0.04 0.06 0.06 0.08 0.12 0.12 0.09 0.08 0.07 0.07 0.07 0.07 0.07 0.07 0.07 0.07 0.08 0.13 0.21 0.22 0.25 0.27 0.26 0.25 0.26 0.24
0.03 0.06 0.07 0.09 0.06 0.02 0.02 0.02 0.01 0.02 0.02 0.01 0.00 0.01 0.03 0.03 0.02 0.03 0.03 0.02 0.05 0.06 0.05 0.05 0.05 0.05 0.10 0.11 0.10 0.09 0.08 0.08 0.09 0.10 0.08 0.08 0.08 0.08 0.09 0.10 0.10 0.13 0.14 0.17 0.22 0.25 0.26 0.22 0.17
0.04 0.08 0.08 0.07 0.03 0.01 0.01 0.01 0.01 0.02 0.00 0.00 0.00 0.01 0.04 0.03 0.02 0.02 0.02 0.03 0.06 0.08 0.10 0.10 0.06 0.05 0.06 0.08 0.10 0.09 0.07 0.07 0.09 0.10 0.08 0.07 0.07 0.08 0.10 0.14 0.12 0.11 0.12 0.13 0.13 0.15 0.16 0.14 0.12
0.05 0.07 0.09 0.04 0.02 0.02 0.01 0.01 0.01 0.02 0.01 0.00 0.00 0.01 0.03 0.04 0.03 0.02 0.02 0.03 0.04 0.06 0.07 0.08 0.07 0.07 0.06 0.08 0.09 0.08 0.07 0.06 0.07 0.07 0.05 0.05 0.06 0.07 0.09 0.15 0.15 0.12 0.10 0.14 0.15 0.15 0.21 0.18 0.14
0.03 0.04 0.07 0.03 0.02 0.02 0.01 0.00 0.00 0.01 0.01 0.00 0.00 0.01 0.02 0.02 0.02 0.01 0.02 0.03 0.03 0.03 0.04 0.04 0.05 0.06 0.05 0.06 0.07 0.06 0.06 0.05 0.06 0.05 0.04 0.05 0.06 0.08 0.15 0.18 0.19 0.14 0.10 0.13 0.14 0.18 0.21 0.16 0.12
0.01 0.05 0.08 0.03 0.01 0.01 0.00 0.00 0.00 0.00 0.00 0.00 0.00 0.00 0.01 0.01 0.00 0.01 0.02 0.02 0.03 0.04 0.05 0.04 0.03 0.04 0.05 0.05 0.04 0.05 0.06 0.05 0.06 0.07 0.06 0.07 0.07 0.07 0.08 0.13 0.29 0.26 0.19 0.14 0.12 0.14 0.13 0.12 0.12
0.02 0.05 0.04 0.01 0.00 0.00 0.00 0.00 0.00 0.01 0.01 0.00 0.00 0.00 0.00 0.00 0.00 0.00 0.01 0.01 0.02 0.03 0.05 0.04 0.02 0.03 0.06 0.06 0.06 0.07 0.07 0.05 0.07 0.11 0.09 0.09 0.08 0.08 0.06 0.07 0.19 0.24 0.19 0.14 0.10 0.11 0.10 0.08 0.09
0.01 0.02 0.01 0.01 0.00 0.00 0.00 0.00 0.01 0.01 0.03 0.02 0.01 0.00 0.00 0.01 0.01 0.01 0.01 0.01 0.02 0.02 0.03 0.04 0.03 0.03 0.05 0.08 0.08 0.07 0.06 0.07 0.07 0.07 0.08 0.07 0.08 0.08 0.07 0.07 0.07 0.08 0.08 0.08 0.05 0.05 0.07 0.06 0.06
0.00 0.00 0.00 0.00 0.00 0.00 0.00 0.00 0.00 0.00 0.02 0.02 0.01 0.00 0.00 0.00 0.00 0.01 0.01 0.01 0.02 0.02 0.02 0.03 0.04 0.04 0.05 0.07 0.07 0.05 0.05 0.07 0.07 0.05 0.05 0.06 0.08 0.09 0.10 0.09 0.07 0.07 0.07 0.07 0.05 0.06 0.05 0.05 0.05
0.00 0.00 0.00 0.00 0.00 0.00 0.00 0.00 0.00 0.00 0.00 0.00 0.00 0.00 0.00 0.00 0.00 0.00 0.01 0.01 0.01 0.02 0.04 0.05 0.04 0.05 0.04 0.03 0.02 0.02 0.03 0.04 0.04 0.05 0.04 0.05 0.07 0.07 0.09 0.09 0.08 0.08 0.07 0.05 0.06 0.05 0.05 0.05 0.07
0.00 0.00 0.00 0.00 0.00 0.00 0.00 0.00 0.00 0.00 0.00 0.00 0.00 0.00 0.00 0.00 0.01 0.01 0.01 0.02 0.02 0.02 0.04 0.05 0.05 0.05 0.03 0.02 0.02 0.01 0.03 0.03 0.03 0.03 0.03 0.04 0.05 0.05 0.04 0.05 0.05 0.06 0.06 0.05 0.05 0.05 0.07 0.06 0.06
0.01 0.01 0.01 0.00 0.00 0.00 0.00 0.01 0.00 0.00 0.00 0.00 0.00 0.00 0.00 0.00 0.01 0.01 0.01 0.01 0.02 0.03 0.04 0.02 0.03 0.04 0.04 0.02 0.02 0.02 0.02 0.02 0.02 0.02 0.03 0.04 0.05 0.04 0.04 0.04 0.04 0.05 0.05 0.06 0.06 0.07 0.09 0.08 0.07
0.02 0.08 0.06 0.01 0.00 0.00 0.01 0.02 0.00 0.00 0.00 0.00 0.00 0.00 0.00 0.01 0.02 0.02 0.02 0.02 0.02 0.02 0.03 0.03 0.03 0.03 0.04 0.04 0.04 0.03 0.01 0.02 0.02 0.02 0.03 0.04 0.05 0.05 0.04 0.04 0.04 0.05 0.04 0.05 0.07 0.08 0.08 0.10 0.09
0.03 0.07 0.08 0.02 0.00 0.00 0.01 0.02 0.01 0.00 0.00 0.00 0.00 0.01 0.01 0.01 0.02 0.02 0.02 0.02 0.02 0.02 0.03 0.04 0.04 0.04 0.04 0.04 0.05 0.05 0.05 0.04 0.03 0.03 0.02 0.03 0.03 0.03 0.04 0.05 0.04 0.03 0.03 0.03 0.05 0.07 0.08 0.09 0.09
0.02 0.01 0.04 0.03 0.00 0.00 0.00 0.01 0.00 0.00 0.00 0.00 0.00 0.00 0.01 0.01 0.02 0.02 0.02 0.02 0.02 0.02 0.03 0.04 0.03 0.04 0.04 0.04 0.04 0.04 0.04 0.03 0.02 0.02 0.03 0.04 0.03 0.03 0.03 0.04 0.04 0.03 0.04 0.04 0.05 0.06 0.08 0.10 0.09
0.01 0.01 0.01 0.01 0.00 0.00 0.00 0.00 0.00 0.00 0.00 0.00 0.00 0.01 0.02 0.01 0.01 0.02 0.03 0.02 0.01 0.02 0.03 0.03 0.02 0.04 0.04 0.04 0.04 0.04 0.05 0.04 0.03 0.02 0.02 0.03 0.04 0.05 0.05 0.05 0.05 0.05 0.06 0.05 0.04 0.05 0.08 0.07 0.06
0.01 0.00 0.01 0.01 0.01 0.00 0.00 0.00 0.00 0.00 0.00 0.00 0.01 0.01 0.02 0.01 0.01 0.01 0.02 0.02 0.01 0.02 0.03 0.03 0.04 0.03 0.02 0.03 0.04 0.04 0.06 0.06 0.05 0.03 0.04 0.03 0.04 0.04 0.05 0.08 0.08 0.07 0.08 0.06 0.07 0.07 0.05 0.05 0.05
0.00 0.00 0.00 0.01 0.01 0.00 0.01 0.02 0.01 0.01 0.01 0.00 0.00 0.01 0.01 0.01 0.01 0.01 0.01 0.02 0.02 0.02 0.02 0.02 0.03 0.05 0.05 0.04 0.04 0.04 0.06 0.06 0.05 0.05 0.07 0.05 0.02 0.02 0.03 0.06 0.08 0.08 0.08 0.08 0.09 0.07 0.06 0.06 0.05
0.00 0.00 0.00 0.00 0.00 0.01 0.02 0.04 0.02 0.01 0.02 0.00 0.00 0.00 0.00 0.00 0.00 0.00 0.00 0.01 0.02 0.02 0.02 0.02 0.03 0.05 0.07 0.07 0.06 0.06 0.06 0.06 0.07 0.08 0.08 0.06 0.03 0.01 0.02 0.04 0.06 0.06 0.06 0.07 0.07 0.08 0.09 0.09 0.08
0.00 0.00 0.00 0.00 0.00 0.01 0.02 0.05 0.04 0.01 0.01 0.01 0.01 0.00 0.00 0.00 0.00 0.00 0.00 0.01 0.02 0.02 0.02 0.02 0.03 0.04 0.04 0.05 0.05 0.05 0.05 0.06 0.06 0.06 0.07 0.05 0.05 0.04 0.03 0.03 0.04 0.05 0.06 0.06 0.08 0.10 0.09 0.10 0.10
0.00 0.00 0.00 0.00 0.00 0.01 0.02 0.02 0.02 0.01 0.01 0.01 0.02 0.01 0.00 0.00 0.00 0.00 0.00 0.01 0.02 0.02 0.02 0.02 0.02 0.02 0.04 0.03 0.04 0.04 0.05 0.06 0.07 0.08 0.07 0.05 0.06 0.06 0.05 0.05 0.05 0.05 0.06 0.06 0.07 0.10 0.08 0.10 0.09
0.00 0.01 0.01 0.01 0.01 0.02 0.01 0.01 0.02 0.01 0.01 0.00 0.00 0.00 0.00 0.00 0.00 0.00 0.01 0.01 0.01 0.02 0.02 0.02 0.03 0.02 0.03 0.03 0.02 0.03 0.04 0.05 0.06 0.07 0.06 0.06 0.05 0.06 0.05 0.06 0.07 0.07 0.08 0.07 0.09 0.10 0.08 0.09 0.07
0.00 0.00 0.01 0.01 0.02 0.01 0.01 0.01 0.01 0.01 0.00 0.00 0.00 0.00 0.00 0.00 0.00 0.01 0.00 0.00 0.01 0.02 0.02 0.01 0.01 0.03 0.04 0.02 0.02 0.03 0.03 0.04 0.05 0.05 0.05 0.05 0.04 0.04 0.04 0.05 0.06 0.07 0.08 0.08 0.11 0.10 0.10 0.09 0.07
0.00 0.00 0.00 0.00 0.00 0.00 0.01 0.01 0.02 0.02 0.00 0.00 0.00 0.00 0.00 0.00 0.00 0.01 0.01 0.00 0.01 0.01 0.01 0.01 0.01 0.03 0.03 0.03 0.03 0.04 0.03 0.02 0.03 0.04 0.05 0.05 0.05 0.05 0.05 0.05 0.06 0.06 0.07 0.07 0.09 0.09 0.09 0.10 0.08
0.00 0.00 0.01 0.01 0.00 0.00 0.01 0.02 0.06 0.06 0.01 0.00 0.00 0.00 0.00 0.00 0.00 0.01 0.01 0.01 0.00 0.01 0.01 0.01 0.01 0.02 0.02 0.04 0.03 0.02 0.02 0.02 0.03 0.03 0.04 0.05 0.05 0.06 0.07 0.05 0.04 0.05 0.06 0.05 0.06 0.06 0.07 0.08 0.09
0.00 0.00 0.00 0.01 0.01 0.00 0.00 0.01 0.04 0.05 0.01 0.00 0.00 0.00 0.00 0.00 0.00 0.00 0.01 0.01 0.01 0.01 0.01 0.01 0.01 0.01 0.02 0.02 0.02 0.02 0.02 0.01 0.01 0.01 0.01 0.03 0.04 0.06 0.06 0.06 0.05 0.04 0.03 0.03 0.04 0.03 0.05 0.08 0.10
0.00 0.00 0.00 0.00 0.00 0.01 0.01 0.01 0.01 0.01 0.00 0.00 0.00 0.00 0.00 0.00 0.00 0.01 0.01 0.01 0.01 0.01 0.01 0.02 0.02 0.02 0.02 0.03 0.04 0.03 0.03 0.02 0.01 0.01 0.02 0.02 0.03 0.04 0.04 0.05 0.05 0.04 0.03 0.03 0.03 0.03 0.04 0.05 0.06
MSLP
1005.63 1006.46 1007.45 1008.41 1009.21 1009.73 1009.94 1009.87 1009.63 1009.33 1009.11 1009.04 1009.12 1009.32 1009.51 1009.60 1009.49 1009.13 1008.54 1007.82 1007.08 1006.45 1006.03 1005.88 1006.00 1006.33 1006.78 1007.28 1007.75 1008.16 1008.53 1008.89 1009.27 1009.73 1010.26 1010.85 1011.47 1012.06 1012.58 1013.00 1013.33 1013.58 1013.78 1013.98 1014.18 1014.39 1014.59 1014.77 1014.90
1005.51 1006.56 1007.73 1008.84 1009.72 1010.27 1010.44 1010.28 1009.91 1009.48 1009.12 1008.93 1008.92 1009.04 1009.20 1009.29 1009.18 1008.85 1008.31 1007.63 1006.94 1006.35 1005.97 1005.85 1006.00 1006.35 1006.84 1007.38 1007.90 1008.38 1008.82 1009.24 1009.69 1010.18 1010.73 1011.31 1011.89 1012.42 1012.86 1013.21 1013.47 1013.67 1013.86 1014.05 1014.26 1014.48 1014.70 1014.88 1015.01
1005.43 1006.68 1008.03 1009.27 1010.22 1010.78 1010.92 1010.68 1010.21 1009.65 1009.17 1008.87 1008.76 1008.81 1008.93 1008.98 1008.88 1008.57 1008.06 1007.43 1006.79 1006.26 1005.93 1005.86 1006.05 1006.45 1006.97 1007.55 1008.11 1008.64 1009.13 1009.60 1010.08 1010.60 1011.14 1011.69 1012.21 1012.67 1013.05 1013.34 1013.56 1013.75 1013.94 1014.16 1014.41 1014.67 1014.92 1015.12 1015.24
1005.41 1006.83 1008.32 1009.66 1010.67 1011.24 1011.34 1011.05 1010.50 1009.86 1009.29 1008.90 1008.71 1008.70 1008.76 1008.78 1008.67 1008.37 1007.90 1007.32 1006.74 1006.28 1006.01 1005.99 1006.23 1006.65 1007.20 1007.80 1008.39 1008.94 1009.45 1009.94 1010.43 1010.94 1011.46 1011.98 1012.45 1012.86 1013.20 1013.46 1013.67 1013.87 1014.10 1014.37 1014.67 1014.98 1015.26 1015.47 1015.58
1005.47 1007.01 1008.59 1009.98 1011.02 1011.59 1011.68 1011.36 1010.77 1010.09 1009.48 1009.04 1008.80 1008.74 1008.76 1008.75 1008.63 1008.34 1007.90 1007.37 1006.86 1006.46 1006.26 1006.30 1006.57 1007.01 1007.57 1008.17 1008.75 1009.29 1009.79 1010.27 1010.75 1011.24 1011.73 1012.21 1012.65 1013.03 1013.34 1013.60 1013.83 1014.07 1014.35 1014.67 1015.03 1015.38 1015.68 1015.89 1015.98
1005.65 1007.24 1008.84 1010.24 1011.27 1011.83 1011.91 1011.59 1011.01 1010.34 1009.74 1009.30 1009.06 1008.97 1008.97 1008.94 1008.80 1008.52 1008.11 1007.64 1007.19 1006.86 1006.71 1006.79 1007.09 1007.53 1008.07 1008.64 1009.18 1009.69 1010.16 1010.61 1011.06 1011.52 1011.99 1012.44 1012.86 1013.23 1013.54 1013.81 1014.07 1014.35 1014.67 1015.03 1015.42 1015.79 1016.09 1016.28 1016.35
1005.96 1007.52 1009.08 1010.44 1011.42 1011.96 1012.04 1011.75 1011.22 1010.61 1010.06 1009.67 1009.45 1009.38 1009.36 1009.32 1009.19 1008.92 1008.54 1008.11 1007.71 1007.44 1007.35 1007.46 1007.76 1008.19 1008.70 1009.21 1009.71 1010.16 1010.58 1010.99 1011.40 1011.84 1012.29 1012.73 1013.14 1013.50 1013.82 1014.11 1014.38 1014.68 1015.01 1015.38 1015.76 1016.12 1016.39 1016.55 1016.56
1006.39 1007.87 1009.33 1010.59 1011.50 1012.00 1012.09 1011.84 1011.39 1010.88 1010.42 1010.11 1009.95 1009.90 1009.90 1009.86 1009.72 1009.46 1009.11 1008.72 1008.38 1008.16 1008.10 1008.23 1008.53 1008.94 1009.40 1009.86 1010.30 1010.70 1011.07 1011.44 1011.83 1012.25 1012.68 1013.12 1013.52 1013.89 1014.20 1014.48 1014.74 1015.02 1015.33 1015.66 1016.00 1016.30 1016.52 1016.62 1016.59
1006.91 1008.26 1009.58 1010.71 1011.53 1011.98 1012.07 1011.88 1011.53 1011.13 1010.79 1010.57 1010.48 1010.48 1010.49 1010.46 1010.33 1010.08 1009.75 1009.41 1009.11 1008.93 1008.91 1009.05 1009.34 1009.72 1010.14 1010.56 1010.95 1011.30 1011.64 1011.99 1012.37 1012.78 1013.21 1013.63 1014.03 1014.38 1014.67 1014.92 1015.14 1015.36 1015.59 1015.85 1016.10 1016.32 1016.46 1016.49 1016.42
1007.48 1008.69 1009.84 1010.82 1011.53 1011.92 1012.02 1011.89 1011.63 1011.35 1011.13 1011.01 1011.00 1011.04 1011.08 1011.05 1010.93 1010.70 1010.40 1010.08 1009.83 1009.69 1009.69 1009.85 1010.13 1010.49 1010.88 1011.26 1011.62 1011.95 1012.28 1012.62 1013.00 1013.41 1013.84 1014.26 1014.64 1014.96 1015.20 1015.39 1015.53 1015.67 1015.80 1015.95 1016.09 1016.21 1016.26 1016.24 1016.13
1008.06 1009.11 1010.11 1010.94 1011.53 1011.86 1011.96 1011.88 1011.72 1011.54 1011.43 1011.40 1011.45 1011.53 1011.59 1011.58 1011.47 1011.26 1010.99 1010.71 1010.49 1010.38 1010.41 1010.57 1010.85 1011.19 1011.56 1011.93 1012.27 1012.60 1012.94 1013.29 1013.68 1014.10 1014.53 1014.93 1015.29 1015.57 1015.76 1015.87 1015.92 1015.95 1015.97 1016.00 1016.04 1016.05 1016.03 1015.96 1015.82
1008.59 1009.52 1010.36 1011.05 1011.54 1011.82 1011.91 1011.88 1011.78 1011.70 1011.68 1011.73 1011.83 1011.95 1012.03 1012.03 1011.93 1011.74 1011.50 1011.26 1011.08 1011.00 1011.04 1011.21 1011.47 1011.80 1012.16 1012.52 1012.86 1013.20 1013.55 1013.93 1014.33 1014.76 1015.18 1015.57 1015.90 1016.13 1016.27 1016.31 1016.28 1016.21 1016.14 1016.07 1016.01 1015.95 1015.87 1015.75 1015.60
1009.07 1009.88 1010.59 1011.16 1011.56 1011.79 1011.89 1011.89 1011.86 1011.85 1011.90 1012.00 1012.15 1012.29 1012.39 1012.41 1012.33 1012.18 1011.97 1011.76 1011.61 1011.54 1011.59 1011.75 1012.00 1012.31 1012.65 1013.00 1013.34 1013.69 1014.06 1014.45 1014.86 1015.29 1015.71 1016.08 1016.38 1016.58 1016.67 1016.66 1016.58 1016.45 1016.31 1016.18 1016.06 1015.96 1015.84 1015.71 1015.55
1009.49 1010.20 1010.80 1011.27 1011.60 1011.80 1011.90 1011.93 1011.96 1012.01 1012.11 1012.26 1012.43 1012.60 1012.72 1012.76 1012.72 1012.59 1012.43 1012.25 1012.12 1012.06 1012.09 1012.22 1012.44 1012.71 1013.01 1013.34 1013.67 1014.02 1014.39 1014.78 1015.19 1015.61 1016.01 1016.36 1016.64 1016.82 1016.89 1016.87 1016.78 1016.64 1016.49 1016.35 1016.22 1016.10 1015.99 1015.85 1015.69
1009.85 1010.47 1010.98 1011.38 1011.66 1011.84 1011.95 1012.02 1012.09 1012.19 1012.33 1012.51 1012.71 1012.90 1013.05 1013.12 1013.12 1013.04 1012.91 1012.76 1012.63 1012.56 1012.56 1012.64 1012.80 1013.01 1013.27 1013.55 1013.85 1014.17 1014.51 1014.88 1015.27 1015.67 1016.04 1016.37 1016.64 1016.82 1016.91 1016.91 1016.85 1016.75 1016.64 1016.53 1016.44 1016.35 1016.26 1016.14 1015.98
1010.16 1010.70 1011.14 1011.48 1011.73 1011.91 1012.05 1012.16 1012.27 1012.41 1012.59 1012.79 1013.01 1013.23 1013.40 1013.52 1013.56 1013.52 1013.43 1013.30 1013.17 1013.07 1013.02 1013.04 1013.11 1013.25 1013.42 1013.64 1013.89 1014.16 1014.46 1014.78 1015.13 1015.48 1015.82 1016.12 1016.38 1016.57 1016.70 1016.76 1016.77 1016.76 1016.73 1016.70 1016.66 1016.63 1016.57 1016.48 1016.33
1010.44 1010.89 1011.26 1011.57 1011.82 1012.02 1012.19 1012.34 1012.50 1012.67 1012.87 1013.10 1013.33 1013.57 1013.77 1013.93 1014.02 1014.03 1013.97 1013.86 1013.72 1013.59 1013.48 1013.41 1013.40 1013.44 1013.53 1013.66 1013.83 1014.04 1014.28 1014.54 1014.82 1015.11 1015.39 1015.67 1015.92 1016.13 1016.31 1016.44 1016.55 1016.64 1016.71 1016.77 1016.83 1016.85 1016.85 1016.78 1016.65
1010.67 1011.04 1011.37 1011.66 1011.93 1012.17 1012.39 1012.58 1012.78 1012.97 1013.18 1013.41 1013.65 1013.90 1014.13 1014.32 1014.45 1014.51 1014.49 1014.40 1014.25 1014.08 1013.91 1013.76 1013.66 1013.60 1013.61 1013.66 1013.76 1013.89 1014.05 1014.24 1014.44 1014.65 1014.88 1015.11 1015.34 1015.57 1015.79 1016.00 1016.20 1016.39 1016.57 1016.73 1016.86 1016.96 1017.00 1016.97 1016.86
1010.83 1011.15 1011.46 1011.77 1012.07 1012.37 1012.64 1012.88 1013.09 1013.29 1013.49 1013.70 1013.93 1014.17 1014.42 1014.64 1014.81 1014.92 1014.93 1014.86 1014.71 1014.52 1014.29 1014.08 1013.90 1013.77 1013.70 1013.69 1013.72 1013.78 1013.87 1013.98 1014.10 1014.23 1014.38 1014.55 1014.75 1014.98 1015.23 1015.49 1015.77 1016.05 1016.31 1016.54 1016.74 1016.89 1016.98 1016.98 1016.91
1010.93 1011.22 1011.54 1011.90 1012.27 1012.63 1012.96 1013.23 1013.45 1013.63 1013.79 1013.95 1014.14 1014.36 1014.60 1014.84 1015.04 1015.19 1015.24 1015.20 1015.07 1014.86 1014.62 1014.36 1014.14 1013.96 1013.84 1013.78 1013.76 1013.78 1013.81 1013.85 1013.88 1013.93 1014.00 1014.10 1014.25 1014.44 1014.69 1014.98 1015.30 1015.63 1015.95 1016.23 1016.47 1016.65 1016.77 1016.81 1016.78
1010.97 1011.28 1011.65 1012.09 1012.54 1012.97 1013.35 1013.64 1013.84 1013.97 1014.05 1014.14 1014.26 1014.43 1014.64 1014.88 1015.12 1015.30 1015.40 1015.40 1015.29 1015.10 1014.86 1014.60 1014.36 1014.17 1014.03 1013.96 1013.92 1013.91 1013.89 1013.87 1013.84 1013.80 1013.78 1013.80 1013.88 1014.02 1014.24 1014.52 1014.84 1015.18 1015.51 1015.81 1016.06 1016.25 1016.39 1016.46 1016.47
1010.98 1011.34 1011.81 1012.34 1012.89 1013.40 1013.81 1014.09 1014.25 1014.30 1014.29 1014.28 1014.30 1014.39 1014.57 1014.79 1015.04 1015.26 1015.41 1015.46 1015.40 1015.25 1015.03 1014.79 1014.57 1014.39 1014.27 1014.20 1014.17 1014.14 1014.11 1014.04 1013.95 1013.83 1013.73 1013.66 1013.65 1013.73 1013.89 1014.13 1014.42 1014.73 1015.04 1015.32 1015.55 1015.74 1015.87 1015.96 1016.01
1011.00 1011.45 1012.02 1012.67 1013.31 1013.88 1014.32 1014.58 1014.68 1014.63 1014.50 1014.37 1014.28 1014.29 1014.41 1014.61 1014.87 1015.12 1015.32 1015.42 1015.42 1015.33 1015.16 1014.96 1014.77 1014.62 1014.53 1014.48 1014.46 1014.44 1014.39 1014.30 1014.15 1013.97 1013.79 1013.64 1013.55 1013.54 1013.63 1013.80 1014.04 1014.30 1014.57 1014.81 1015.00 1015.15 1015.26 1015.35 1015.42
1011.06 1011.61 1012.30 1013.04 1013.77 1014.39 1014.84 1015.07 1015.09 1014.94 1014.70 1014.44 1014.25 1014.17 1014.22 1014.40 1014.66 1014.94 1015.19 1015.35 1015.41 1015.37 1015.26 1015.11 1014.96 1014.85 1014.79 1014.76 1014.76 1014.75 1014.69 1014.57 1014.39 1014.16 1013.91 1013.68 1013.51 1013.43 1013.44 1013.55 1013.72 1013.92 1014.12 1014.30 1014.45 1014.55 1014.62 1014.69 1014.76
1011.19 1011.83 1012.60 1013.43 1014.22 1014.87 1015.31 1015.50 1015.45 1015.21 1014.87 1014.51 1014.22 1014.07 1014.07 1014.22 1014.49 1014.79 1015.08 1015.29 1015.41 1015.42 1015.36 1015.25 1015.14 1015.06 1015.01 1015.01 1015.01 1015.00 1014.94 1014.80 1014.59 1014.32 1014.03 1013.74 1013.52 1013.37 1013.32 1013.36 1013.47 1013.61 1013.75 1013.87 1013.94 1013.99 1014.01 1014.03 1014.08
1011.37 1012.07 1012.90 1013.77 1014.59 1015.24 1015.67 1015.82 1015.72 1015.42 1015.00 1014.58 1014.22 1014.02 1013.99 1014.13 1014.39 1014.71 1015.03 1015.29 1015.45 1015.50 1015.48 1015.40 1015.32 1015.25 1015.21 1015.20 1015.21 1015.19 1015.11 1014.96 1014.73 1014.45 1014.13 1013.81 1013.55 1013.37 1013.27 1013.26 1013.32 1013.41 1013.49 1013.54 1013.56 1013.53 1013.49 1013.45 1013.44
1011.56 1012.28 1013.12 1013.99 1014.80 1015.44 1015.84 1015.98 1015.85 1015.52 1015.08 1014.62 1014.25 1014.03 1013.98 1014.12 1014.38 1014.72 1015.06 1015.35 1015.54 1015.63 1015.63 1015.57 1015.49 1015.43 1015.38 1015.36 1015.35 1015.31 1015.22 1015.07 1014.84 1014.54 1014.22 1013.91 1013.64 1013.44 1013.33 1013.29 1013.32 1013.36 1013.40 1013.40 1013.35 1013.26 1013.14 1013.02 1012.94
1011.74 1012.42 1013.22 1014.05 1014.81 1015.42 1015.80 1015.92 1015.80 1015.48 1015.06 1014.63 1014.27 1014.07 1014.04 1014.18 1014.46 1014.81 1015.16 1015.47 1015.68 1015.79 1015.81 1015.76 1015.69 1015.61 1015.55 1015.50 1015.47 1015.41 1015.32 1015.16 1014.94 1014.66 1014.37 1014.07 1013.82 1013.64 1013.53 1013.49 1013.50 1013.52 1013.52 1013.47 1013.37 1013.21 1013.02 1012.83 1012.66
1011.86 1012.46 1013.17 1013.91 1014.59 1015.15 1015.51 1015.64 1015.55 1015.28 1014.92 1014.56 1014.26 1014.10 1014.11 1014.27 1014.56 1014.92 1015.29 1015.61 1015.84 1015.97 1016.01 1015.97 1015.89 1015.81 1015.73 1015.67 1015.61 1015.54 1015.44 1015.29 1015.09 1014.86 1014.60 1014.36 1014.15 1014.00 1013.91 1013.89 1013.89 1013.89 1013.86 1013.78 1013.64 1013.43 1013.17 1012.91 1012.66
1011.93 1012.41 1012.99 1013.61 1014.20 1014.68 1015.01 1015.16 1015.12 1014.93 1014.67 1014.39 1014.18 1014.09 1014.14 1014.34 1014.65 1015.02 1015.40 1015.73 1015.98 1016.13 1016.19 1016.18 1016.12 1016.04 1015.96 1015.88 1015.82 1015.74 1015.64 1015.51 1015.35 1015.16 1014.96 1014.77 1014.62 1014.52 1014.46 1014.45 1014.46 1014.45 1014.41 1014.30 1014.12 1013.87 1013.57 1013.25 1012.94
Thickness
5834 5835 5834 5826 5807 5800 5801 5816 5826 5822 5823 5830 5831 5824 5811 5802 5792 5779 5805 5816 5812 5807 5802 5798 5796 5795 5793 5792 5790 5789 5787 5786 5785 5784 5783 5782 5781 5781 5780 5780 5778 5777 5776 5775 5774 5773 5772 5771 5770
5843 5842 5833 5819 5801 5793 5801 5821 5821 5823 5830 5835 5831 5825 5813 5805 5810 5806 5810 5815 5814 5808 5803 5799 5796 5794 5793 5791 5789 5788 5786 5785 5784 5783 5782 5781 5781 5780 5779 5778 5777 5776 5775 5775 5774 5773 5772 5771 5770
5845 5845 5826 5816 5809 5801 5805 5824 5828 5834 5840 5834 5824 5823 5812 5804 5810 5810 5814 5818 5815 5809 5803 5798 5796 5794 5792 5790 5788 5787 5785 5784 5783 5781 5781 5780 5780 5779 5778 5777 5776 5774 5774 5774 5773 5772 5771 5770 5769
5845 5838 5829 5815 5811 5821 5826 5833 5838 5835 5836 5837 5828 5814 5811 5818 5816 5816 5820 5819 5814 5809 5803 5797 5795 5793 5791 5789 5787 5785 5784 5782 5781 5780 5779 5779 5779 5778 5777 5776 5775 5774 5773 5773 5773 5771 5770 5769 5768
5846 5829 5816 5814 5821 5832 5840 5845 5845 5834 5831 5832 5826 5806 5802 5817 5823 5822 5821 5819 5814 5809 5804 5797 5794 5792 5790 5788 5786 5784 5783 5781 5780 5779 5778 5778 5777 5777 5776 5775 5775 5774 5773 5772 5772 5770 5769 5768 5768
5835 5827 5810 5811 5822 5835 5844 5849 5846 5836 5833 5832 5824 5809 5802 5819 5820 5821 5822 5819 5816 5810 5804 5797 5793 5792 5790 5788 5786 5784 5782 5781 5779 5778 5778 5777 5776 5776 5775 5774 5774 5773 5772 5771 5771 5769 5768 5767 5767
5832 5822 5816 5823 5823 5828 5841 5852 5844 5836 5831 5834 5833 5812 5806 5815 5821 5823 5822 5819 5816 5811 5806 5799 5795 5791 5789 5787 5785 5784 5782 5780 5779 5778 5777 5776 5776 5775 5775 5774 5774 5773 5772 5771 5770 5769 5768 5768 5767
5856 5837 5827 5829 5824 5826 5846 5851 5850 5842 5835 5846 5842 5815 5803 5814 5824 5823 5820 5817 5814 5811 5807 5803 5799 5795 5791 5788 5785 5783 5782 5780 5779 5778 5778 5777 5776 5776 5775 5775 5775 5773 5772 5771 5770 5769 5769 5768 5768
5865 5833 5820 5828 5829 5835 5850 5845 5849 5853 5843 5841 5841 5832 5823 5826 5825 5819 5815 5811 5809 5808 5807 5805 5801 5798 5795 5792 5787 5784 5782 5781 5780 5779 5778 5777 5777 5777 5776 5775 5775 5773 5772 5772 5771 5770 5769 5769 5768
5856 5831 5832 5850 5852 5848 5850 5847 5847 5842 5831 5827 5827 5828 5829 5826 5821 5815 5810 5806 5805 5804 5805 5804 5802 5799 5796 5794 5789 5786 5784 5782 5781 5780 5779 5778 5778 5777 5777 5775 5774 5773 5772 5772 5772 5771 5770 5770 5770
5859 5846 5853 5861 5864 5861 5852 5850 5852 5838 5823 5825 5822 5822 5824 5822 5820 5816 5813 5810 5807 5805 5804 5803 5801 5799 5796 5793 5790 5788 5786 5783 5782 5780 5779 5779 5778 5778 5777 5775 5774 5773 5773 5773 5773 5772 5772 5772 5772
5863 5862 5865 5864 5868 5862 5855 5853 5848 5840 5833 5838 5834 5831 5826 5821 5819 5817 5814 5811 5809 5805 5803 5802 5800 5797 5794 5793 5790 5788 5786 5784 5782 5780 5779 5779 5778 5778 5777 5776 5775 5775 5775 5775 5775 5775 5775 5775 5775
5860 5861 5867 5870 5868 5865 5860 5851 5845 5840 5846 5844 5838 5832 5826 5823 5821 5820 5817 5814 5810 5805 5803 5802 5799 5795 5793 5791 5790 5789 5786 5784 5782 5780 5779 5779 5777 5777 5777 5776 5776 5776 5777 5776 5776 5776 5776 5776 5776
5862 5864 5866 5868 5867 5865 5854 5848 5844 5840 5847 5841 5834 5829 5828 5824 5822 5818 5815 5811 5808 5805 5803 5802 5799 5795 5792 5791 5789 5788 5787 5784 5782 5780 5779 5779 5778 5777 5777 5776 5776 5776 5777 5777 5776 5776 5776 5776 5776
5868 5854 5855 5864 5867 5864 5856 5834 5835 5845 5846 5837 5833 5830 5828 5826 5823 5818 5815 5812 5808 5805 5803 5800 5798 5795 5792 5791 5789 5789 5788 5785 5783 5781 5779 5778 5778 5777 5776 5776 5776 5776 5777 5777 5777 5776 5776 5775 5775
5854 5837 5828 5853 5866 5866 5848 5818 5837 5848 5843 5834 5832 5829 5826 5824 5823 5821 5818 5814 5811 5806 5802 5800 5800 5794 5792 5790 5789 5789 5788 5785 5784 5782 5780 5778 5777 5777 5776 5776 5776 5776 5777 5777 5776 5775 5774 5773 5772
5834 5825 5825 5843 5866 5865 5849 5823 5839 5852 5845 5834 5832 5829 5826 5822 5822 5822 5821 5816 5812 5807 5802 5798 5797 5793 5791 5789 5788 5788 5786 5784 5783 5782 5780 5778 5777 5776 5776 5775 5776 5777 5777 5776 5776 5774 5772 5770 5770
5826 5831 5831 5837 5860 5860 5847 5836 5843 5853 5847 5837 5832 5830 5826 5822 5822 5824 5822 5818 5813 5807 5802 5798 5795 5792 5790 5788 5786 5785 5784 5783 5782 5781 5779 5777 5776 5776 5775 5775 5775 5776 5775 5774 5773 5771 5771 5770 5769
5850 5842 5837 5847 5866 5857 5845 5838 5843 5850 5847 5839 5834 5830 5826 5824 5827 5825 5821 5818 5812 5806 5801 5797 5794 5791 5789 5785 5782 5780 5779 5780 5780 5780 5779 5778 5776 5775 5774 5775 5774 5774 5772 5772 5771 5770 5768 5767 5768
5855 5845 5841 5848 5862 5854 5842 5839 5847 5849 5846 5843 5837 5832 5829 5825 5823 5821 5819 5815 5810 5804 5800 5797 5793 5791 5788 5786 5783 5781 5779 5779 5779 5779 5778 5777 5776 5775 5775 5772 5772 5772 5771 5770 5769 5767 5765 5764 5766
5852 5846 5842 5841 5851 5854 5841 5827 5836 5844 5849 5849 5846 5841 5836 5829 5822 5819 5816 5814 5810 5804 5801 5798 5794 5791 5789 5787 5784 5781 5778 5777 5775 5775 5775 5775 5774 5773 5773 5772 5771 5771 5770 5768 5767 5766 5763 5760 5763
5842 5860 5856 5849 5837 5827 5835 5805 5822 5833 5837 5840 5842 5841 5837 5833 5828 5821 5817 5813 5810 5806 5803 5799 5794 5791 5788 5786 5783 5778 5774 5770 5772 5772 5772 5773 5773 5772 5772 5771 5771 5769 5769 5767 5767 5767 5764 5762 5759
5852 5865 5858 5850 5839 5830 5833 5815 5812 5833 5827 5832 5838 5839 5839 5836 5831 5824 5820 5815 5812 5809 5804 5799 5794 5790 5788 5785 5782 5778 5775 5773 5773 5772 5771 5770 5771 5771 5771 5770 5769 5768 5767 5766 5766 5765 5763 5762 5759
5866 5858 5853 5850 5837 5810 5824 5817 5807 5829 5831 5834 5837 5838 5838 5836 5833 5827 5822 5817 5812 5809 5804 5799 5792 5788 5786 5783 5780 5777 5774 5772 5770 5769 5768 5768 5768 5769 5769 5768 5767 5766 5765 5764 5764 5763 5762 5760 5759
5857 5836 5815 5805 5802 5801 5831 5823 5815 5837 5845 5843 5838 5835 5837 5836 5831 5825 5819 5813 5809 5806 5802 5797 5791 5786 5784 5781 5778 5775 5773 5771 5768 5766 5765 5765 5765 5764 5765 5765 5764 5763 5762 5762 5762 5760 5759 5758 5756
5846 5839 5810 5792 5793 5803 5826 5817 5822 5842 5849 5849 5845 5840 5836 5833 5829 5824 5818 5813 5808 5804 5800 5796 5790 5785 5782 5779 5776 5774 5772 5769 5767 5766 5764 5763 5763 5763 5764 5763 5762 5760 5759 5760 5759 5758 5756 5755 5754
5838 5837 5845 5826 5817 5805 5811 5813 5824 5839 5841 5842 5840 5836 5831 5828 5825 5821 5817 5812 5807 5803 5799 5795 5789 5784 5781 5778 5775 5772 5770 5767 5765 5764 5763 5762 5761 5762 5761 5760 5759 5757 5756 5755 5755 5753 5752 5751 5751
5853 5845 5832 5815 5795 5791 5799 5799 5798 5814 5823 5829 5829 5827 5826 5824 5821 5818 5814 5810 5806 5802 5798 5794 5789 5783 5780 5777 5773 5771 5768 5765 5763 5761 5759 5759 5758 5758 5757 5756 5755 5754 5752 5751 5750 5749 5749 5747 5747
5839 5834 5827 5820 5817 5796 5787 5790 5820 5817 5824 5824 5824 5824 5822 5819 5816 5813 5810 5807 5803 5799 5795 5790 5787 5782 5778 5774 5771 5769 5766 5764 5761 5759 5758 5756 5755 5754 5752 5752 5750 5749 5748 5747 5746 5744 5744 5742 5741
5844 5836 5827 5805 5800 5805 5794 5790 5831 5828 5828 5826 5822 5821 5819 5815 5812 5809 5805 5802 5797 5793 5789 5785 5782 5779 5775 5772 5769 5766 5764 5761 5758 5756 5755 5753 5751 5750 5749 5748 5746 5745 5744 5743 5741 5739 5739 5738 5736